Regional Weather Roundup
Issued by NWS Newport/Morehead, NC

Current Version | Previous Version | Text Only | Print | Product List | Glossary On
Versions: 1 2 3 4 5 6 7 8 9 10 11 12 13 14 15 16 17 18 19 20 21 22 23 24 25 26 27 28 29 30 31 32 33 34 35 36 37 38 39 40 41 42 43 44 45 46 47 48 49 50
000
ASUS42 KMHX 201010
RWRMHX
WEATHER ROUNDUP FOR EASTERN NORTH CAROLINA
NATIONAL WEATHER SERVICE NEWPORT/MOREHEAD CITY NC
600 AM EDT WED AUG 20 2014

NOTE: "FAIR" INDICATES FEW OR NO CLOUDS BELOW 12,000 FEET
WITH NO SIGNIFICANT WEATHER AND/OR OBSTRUCTIONS TO VISIBILITY

NCZ015>017-031-032-045>047-102-103-201100-
NORTH COAST

CITY           SKY/WX    TMP DP  RH WIND       PRES   REMARKS
EDENTON        PTCLDY    70  69  97 N5        29.90R FOG
ELIZABETH CITY CLEAR     74  72  93 N8        29.89R
KITTY HAWK     SUNNY     75  73  93 CALM      29.87R
MANTEO         MOCLDY    75  73  94 NE5       29.87R

$$

NCZ045>047-081-094-103-104-201100-
CENTRAL COAST

CITY           SKY/WX    TMP DP  RH WIND       PRES   REMARKS
FRISCO         PTCLDY    75  74  96 NE3       29.86R
SWANQUARTER      N/A     73 N/A N/A N1        29.85R

$$

NCZ095-097-098-100-101-201100-
SOUTHERN COAST

CITY           SKY/WX    TMP DP  RH WIND       PRES   REMARKS
BEAUFORT       CLEAR     77  75  93 NW7       29.88R
CEDAR ISLAND     N/A     77 N/A N/A NW7       29.91S
JACKSONVILLE   CLEAR     72  71  97 SW5       29.90R FOG
NEWPORT        NOT AVBL
PINEY ISLAND   SUNNY     79  77  94 N5        29.87R
WILMINGTON     CLEAR     74  73  97 CALM      29.90R


$$

NCZ011>013-027>030-043-044-078>080-089-090>093-098-201100-
COASTAL PLAIN

CITY           SKY/WX    TMP DP  RH WIND       PRES   REMARKS
AHOSKIE        CLEAR     69  68  96 CALM      29.93R
CLINTON        FOG       71  71 100 CALM      29.92R VSB 1/2
ELIZABETHTOWN  CLEAR     73  73 100 CALM      29.92R
GOLDSBORO      CLEAR     73  72  99 N3        29.91R
GREENVILLE     RAIN      72  72 100 N3        29.94R VSB 1/2
HAVELOCK       CLOUDY    76  74  93 N5        29.90R
KENANSVILLE    CLEAR     70  70 100 CALM      29.92R FOG
KINSTON        CLEAR     72  71  98 NW3       29.92R FOG
NEW BERN       CLOUDY    75  72  88 N3        29.91R
RICHLANDS      PTCLDY    72  68  88 CALM      29.91R
ROANOKE RAPIDS NOT AVBL
ROCKY MOUNT    FOG       72  71  97 N5        29.93R VSB 3/4
WASHINGTON     CLOUDY    71  71  99 N3        29.91R VSB 1/2
WHITEVILLE     CLEAR     73  71  96 CALM      29.91R FOG

$$

AMZ130-135-150-152-154-156-158-170-250-252-270-ANZ085-086-088-633-658-670-201100-
MARINE OBSERVATIONS

STATION/POSITION TIME  TEMP    WIND        PRES    WAVE   SWELL
                       AIR SEA DIR/SP/G            HT/PER HT/PER
                 (UTC) (F)     (DEG/KT/KT) (MB)    (FT/S) (FT/S)
CHESAPEAKE LIGHT 0900   76      50/ 12/ 13 1012.5
BUOY 44014       1000   77 78   40/ 12/ 14 1011.1    3/ 6   2/ 6
DUCK             1000   77 78   40/ 12/ 13 1011.0
2E DUCK          1000                        N/A     3/ 5
OREGON INLET     1000   75 81  340/  3/  4 1011.3
BUOY 44095       1000      80                N/A     2/ 6
20E OREGON INLET NOT AVBL
HATTERAS CG      1000   80 82   20/  5/  7 1011.3
DIAMOND BUOY     1000   78     320/  8/ 10 1010.5    2/ 6   2/ 6
CAPE LOOKOUT     0900   79     350/  7/  7 1011.1
BEAUFORT LAB     1000   77 82  340/  4/  7 1011.4
30 SE NEW RIVER  1000   79 81  300/ 12/ 14 1011.4    4/ 7   3/ 7
5 SE WRIGHTSVILL 0900   74 82  310/ 10/ 12   N/A
BUOY 41002       0854   82 81  240/ 21/ 25 1014.2    6/ 7   2/11
BUOY 41004       1000   81 83  270/ 14/ 16 1012.3    4/ 5   2/ 8

$$



USA.gov is the U.S. government's official web portal to all federal, state and local government web resources and services.